www.pogodaiklimat.ru

Погода и климат >> Архив погоды >> Россия >> Краснодарский край >> Краснодар


АРХИВ ПОГОДЫ в Краснодаре

Время (UTC), дата Ветер
(напр.,м/с)
 
Видим.   Явления Облачность Т
(С)
Тd
(С)
f
(%)
Тe
(С)
Тes
(С)
Комфортность P
(гПа)
Po
(гПа)
Тmin
(С)
Tmax
(С)
R
(мм)
R24
(мм)
S
(см)
09 14.10 З 2 10 км {ливн. осадки} 10/9 1000 м
[Sc Ac As]
+12.3 +10.2 87 +11 +12 прохладно 1017.1 1013.0
12 14.10 Ю 4 10 км {ливн. осадки} 9/9 600 м
[Cb cap Ac trans]
+13.8 +11.5 86 +12 +13 холодно 1016.6 1012.5
15 14.10 З 1 10 км 1/1 1000 м
[Sc]
+12.6 +5.6 62 +13 +13 по сезону 1016.9 1012.8 +15.5 9
18 14.10 З 4 10 км 10/10 1000 м
[Sc]
+12.7 +5.4 61 +11 +11 по сезону 1017.7 1013.5
21 14.10 ЮЗ 4 10 км 9/9 1000 м
[Sc]
+11.5 +6.6 72 +9 +9 по сезону 1017.0 1012.9
00 15.10 ЮЗ 3 10 км 9/9 600 м
[Cb cap]
+11.2 +7.8 80 +9 +9 по сезону 1016.3 1012.2
03 15.10 З 4 10 км в посл. час ливневой дождь 9/9 600 м
[Cb cap]
+10.4 +8.2 86 +8 +8 по сезону 1017.8 1013.6 +10.4 0.3
06 15.10 З 5 10 км 9/9 600 м
[Sc diur, vesp]
+10.6 +5.2 69 +8 +8 прохладно 1019.5 1015.3 +9.6
09 15.10 З 5
{10}
10 км 9/9 600 м
[Sc diur, vesp]
+12.1 +2.8 53 +10 +10 прохладно 1020.0 1015.9
12 15.10 З 6
{11}
10 км 8/8 1000 м
[Cu hum Ac trans]
+14.3 +3.4 48 +13 +13 прохладно 1018.6 1014.5
15 15.10 ЮЗ 7-11
{14}
10 км 9/9 1000 м
[Sc]
+13.6 +4.2 53 +11 +11 прохладно 1016.7 1012.6 +14.7
18 15.10 Ю 8-11
{13}
10 км в посл. час ливневой дождь 9/9 1000 м
[St]
+12.0 +8.9 81 +9 +9 прохладно 1014.8 1010.7
21 15.10 ЮЗ 7-11
{13}
10 км в посл. час ливневой дождь 10/10 1000 м
[Sc]
+13.6 +12.2 91 +11 +11 по сезону 1011.6 1007.6
00 16.10 З 6
{15}
10 км в посл. час ливневой дождь 8/8
[Sc]
+12.4 +10.8 90 +10 +10 по сезону 1011.3 1007.2
03 16.10 З 4
{10}
10 км н/о +11.1 +8.5 84 +9 +9 по сезону 1013.6 1009.5 +11.1 18
06 16.10 СЗ 5 10 км 9/9 1000 м
[Cb cap]
+11.3 +6.6 73 +9 +9 по сезону 1015.7 1011.6 +10.5
09 16.10 СЗ 5
{11}
10 км 9/9 600 м
[Cb cap]
+11.2 +3.5 59 +9 +9 прохладно 1017.4 1013.2
12 16.10 СЗ 5
{12}
10 км 8/8 1000 м
[Sc diur, vesp]
+12.5 +1.8 48 +11 +11 холодно 1018.9 1014.8
15 16.10 З 3
{11}
10 км 10/10 1000 м
[Sc]
+10.4 +2.3 57 +9 +9 холодно 1021.0 1016.8 +13.0
18 16.10 ЮЗ 2 10 км 8/8 1000 м
[Sc]
+9.1 +2.9 65 +8 +8 прохладно 1021.9 1017.8
21 16.10 ЮЗ 4 10 км 10/10 1000 м
[Sc]
+9.9 +4.9 71 +7 +7 прохладно 1022.2 1018.0
00 17.10 ЮЗ 3 н/о н/о +10.9 +6.5 74 +9 +9 по сезону 1022.1 1017.9
03 17.10 ЮЗ 3 10 км 10/10 1000 м
[Sc]
+11.1 +7.4 78 +9 +9 по сезону 1022.1 1018.0 +9.1
06 17.10 ЮЗ 4 10 км 9/0
[Ac As]
+13.6 +8.0 69 +12 +13 по сезону 1022.8 1018.7
09 17.10 ЮЗ 8-13
{13}
10 км 9/3 1000 м
[Sc Ac As]
+17.7 +7.2 50 +17 +17 тепло 1022.1 1018.1
12 17.10 ЮЗ 7-11
{13}
10 км 9/8 1000 м
[Sc Ac As]
+19.9 +7.1 43 +20 +20 тепло 1020.9 1016.9
15 17.10 ЮЗ 6
{11}
10 км 9/9 1000 м
[Sc]
+17.8 +9.8 59 +17 +17 тепло 1021.3 1017.3 +20.6
18 17.10 ЮЗ 6
{11}
10 км 8/8 1000 м
[Sc]
+15.4 +9.3 67 +14 +14 тепло 1022.2 1018.1
21 17.10 ЮЗ 5
{10}
10 км 8/8 1000 м
[Sc]
+15.8 +10.2 69 +15 +15 тепло 1022.5 1018.4
00 18.10 ЮЗ 6-10
{10}
10 км 8/8 1000 м
[Sc]
+16.1 +10.8 71 +15 +15 тепло 1022.5 1018.4
03 18.10 ЮЗ 5
{11}
10 км 8/8 1000 м
[Sc]
+15.7 +10.5 71 +15 +15 тепло 1022.8 1018.7 +15.4
06 18.10 ЮЗ 2 10 км 9/9 1000 м
[Sc diur, vesp]
+16.7 +10.1 65 +17 +17 тепло 1024.1 1020.0
09 18.10 ЮЗ 4 10 км 10/10 1000 м
[Sc diur, vesp]
+19.9 +10.6 55 +21 +21 комфорт 1023.6 1019.6
12 18.10 Ю 4 10 км 10/10 1000 м
[Sc diur, vesp]
+19.2 +10.9 59 +20 +20 тепло 1022.8 1018.8
15 18.10 Ю 3 10 км 10/10 1000 м
[Sc diur, vesp]
+17.3 +9.0 58 +17 +17 тепло 1023.1 1019.0 +19.9
18 18.10 ЮЗ 2 10 км 8/8 1000 м
[Sc diur, vesp]
+13.5 +7.7 68 +13 +13 тепло 1023.1 1019.0
21 18.10 СВ 1 10 км 8/8 1000 м
[Sc diur, vesp]
+9.9 +8.2 89 +9 +9 по сезону 1023.2 1019.0
00 19.10 В 1 10 км 8/8 1000 м
[Sc diur, vesp]
+10.0 +8.7 92 +9 +9 по сезону 1022.5 1018.3
03 19.10 В 1 10 км 9/9 1000 м
[Sc diur, vesp]
+8.7 +7.8 94 +8 +8 по сезону 1022.2 1018.0 +8.4
06 19.10 ЮВ 2 4000 м дымка {туман} ясно +12.1 +10.6 91 +11 +13 по сезону 1022.3 1018.1 +8.0
09 19.10 ЮВ 2 10 км ясно +18.0 +8.7 55 +19 +25 тепло 1021.5 1017.4
12 19.10 СЗ 1 10 км ясно +20.3 +9.5 50 +23 +27 комфорт 1020.0 1016.0
15 19.10 Ю 1 4000 м дымка ясно +14.9 +10.8 76 +15 +15 тепло 1019.8 1015.7 +20.5
18 19.10 СЗ 1 4000 м дымка ясно +11.5 +10.0 90 +11 +11 по сезону 1020.0 1015.9
21 19.10 штиль 0 4000 м дымка ясно +9.9 +8.8 93 +9 +9 по сезону 1019.6 1015.4
00 20.10 штиль 0 10 км туман поземный ясно +7.3 +6.4 94 +6 +6 по сезону 1019.4 1015.2
03 20.10 штиль 0 10 км туман поземный ясно +5.9 +5.0 94 +5 +5 прохладно 1019.7 1015.5 +5.7
06 20.10 ЮВ 1 10 км ясно +11.8 +10.9 94 +12 +14 тепло 1019.9 1015.8 +5.5
09 20.10 СВ 1 10 км 6/1 600 м
[Cu med, cong Ac trans Ci fib]
+16.5 +11.9 74 +17 +22 тепло 1019.5 1015.5
12 20.10 С 1 10 км 1/0
[Ci fib]
+20.4 +10.4 53 +23 +27 комфорт 1018.1 1014.1
15 20.10 штиль 0 10 км 1/0
[Ci fib]
+15.1 +11.3 78 +15 +15 тепло 1018.4 1014.3 +21.0
18 20.10 СВ 1 10 км ясно +12.9 +10.1 83 +13 +13 тепло 1019.0 1014.9
21 20.10 СВ 1 4000 м дымка ясно +10.2 +9.1 93 +10 +10 по сезону 1018.6 1014.4
00 21.10 штиль 0 10 км туман поземный ясно +10.7 +9.8 94 +10 +10 тепло 1017.9 1013.8
03 21.10 С 2 10 км туман поземный ясно +10.7 +9.9 95 +9 +9 по сезону 1017.9 1013.8 +9.0

 

Местоположение метеостанции Краснодар (Краснодарский край, Россия): широта 45.05 долгота 39.03 высота над уровнем моря 29 м.

В архиве по умолчанию представлена погода в Краснодаре за последнюю неделю. Архивные данные за месяц целиком и за предыдущие месяцы, начиная с января 2011 года, Вы можете получить, выбрав интересующий диапазон дат из раскрывающегося списка и нажав кнопку "Ввод!".

Внимание! Время в таблицах - всемирное. Для получения местного времени необходимо прибавить поправку, которая в Краснодаре равна 3 ч.

Смотрите также архив погоды в соседних городах и на ближайших метеорологических станциях:

Погода в Горячем Ключе (Краснодарский край, Россия) (47 км)
Погода в Усть-Лабинске (Краснодарский край, Россия) (58 км)
Погода в Кореновске (Краснодарский край, Россия) (59 км)
Погода в Тимашевске (Краснодарский край, Россия) (65 км)
Погода в Славянске-на-Кубани (Краснодарский край, Россия) (76 км)
Погода в Белореченске (Краснодарский край, Россия) (76 км)
Погода в Крымске (Краснодарский край, Россия) (82 км)
Погода в Джубге (Краснодарский край, Россия) (84 км)
Погода в Горном (Краснодарский край, Россия) (88 км)
Погода в Геленджике (Краснодарский край, Россия) (92 км)

Пояснения к столбцам:

Ветер - указаны скорость ветра в м/с - средняя за 10 мин, порывы в срок и между сроками (в фигурных скобках) и направление, откуда дует ветер: С - северный, СВ - северо-восточный, В - восточный, ЮВ - юго-восточный, Ю - южный, ЮЗ - юго-западный, З - западный, СЗ - северо-западный.
Видимость - горизонтальная дальность видимости в метрах или километрах. При видимости от 1 до 10 км при отсутствии осадков обычно наблюдается дымка, при ухудшении видимости до 1 км и менее - туман. В сухую погоду видимость может ухудшаться дымом, пылью или мглою.
Явления - указаны атмосферные явления, наблюдавшиеся в срок или в последний час перед сроком; фигурными скобками обозначены явления, наблюдавшиеся между сроками (за 1-3 часа до срока); квадратными скобками обозначены град или гололедные отложения с указанием их диаметра в мм.
Облачность - указаны через наклонную черту общая и нижняя облачность в баллах и высота нижней границы облаков в метрах; квадратными скобками обозначены формы облаков: Ci - перистые, Cs - перисто-слоистые, Cc - перисто-кучевые, Ac - высококучевые, As - высокослоистые, Sc - слоисто-кучевые, Ns - слоисто-дождевые, Cu - кучевые, Cb - кучево-дождевые. Подробнее классификацию облаков см. в Атласе облаков (PDF).
T - Температура воздуха - температура, измеренная на высоте 2 м над землей.
Td - Температура точки росы - температура, при понижении до которой содержащийся в воздухе водяной пар достигнет насыщения.
f - Относительная влажность воздуха - влажноcть воздуха, измеренная на высоте 2 м над землей.
Te - Эффективная температура - температура, которую ощущает одетый по сезону человек в тени. Характеристика душности погоды. При расчете учитывается влияние влажности воздуха и скорости ветра на теплоощущения человека.
Tes - Эффективная температура на солнце - температура, которую ощущает человек, с поправкой на солнечный нагрев. Характеристика знойности погоды. Зависит от высоты солнца над горизонтом, облачности и скорости ветра. Ночью, в пасмурную погоду, а также при ветре 12 м/с и более поправка равна нулю.
P - Атмосферное давление - приведенное к уровню моря атмосферное давление.
Po - Атмосферное давление - измеренное на уровне метеостанции атмосферное давление.
Tmin - Минимальная температура - минимум температуры воздуха на высоте 2 м над землей.
Tmax - Максимальная температура - максимум температуры воздуха на высоте 2 м над землей.
R - Количество осадков - Количество выпавших осадков за период времени, мм. При наведении курсора мыши на число - период времени, за который выпало указанное количество осадков.
R24 - Количество осадков - Количество выпавших осадков за 24 часа, мм.
S - Снежный покров - Высота снежного покрова, см. При наведении курсора мыши на число - состояние снежного покрова и степень покрытия местности в баллах.